Regional Weather Roundup
Issued by NWS Charleston, WV

Home | Current Version | Previous Version | Text Only | Print | Product List | Glossary Off
Versions: 1 2 3 4 5 6 7 8 9 10 11 12 13 14 15 16 17 18 19 20 21 22 23 24 25 26 27 28 29 30 31 32 33 34 35 36 37 38 39 40 41 42 43 44 45 46 47 48 49 50

000
ASUS41 KRLX 190910
RWRRLX
West Virginia Regional Weather Roundup
National Weather Service Charleston WV
400 AM EST SUN NOV 19 2017

Note: "fair" indicates few or no clouds below 12,000 feet with no
significant weather and/or obstructions to visibility.

WVZ003-191000-
Northern Panhandle of West Virginia

CITY           SKY/WX    TMP DP  RH WIND       PRES   REMARKS
WHEELING       LGT RAIN  36  33  89 W14G28    29.63R
$$

WVZ009-191000-
Northwest West Virginia

CITY           SKY/WX    TMP DP  RH WIND       PRES   REMARKS
PARKERSBURG    CLOUDY    39  35  86 W12       29.76R
$$

WVZ006-191000-
Western West Virginia

CITY           SKY/WX    TMP DP  RH WIND       PRES   REMARKS
HUNTINGTON     LGT RAIN  42  36  79 W12G22    29.82R
$$

WVZ015-191000-
West Central West Virginia

CITY           SKY/WX    TMP DP  RH WIND       PRES   REMARKS
CHARLESTON     CLOUDY    41  36  82 W10       29.80R
$$

WVZ022-031-191000-
North Central West Virginia

CITY           SKY/WX    TMP DP  RH WIND       PRES   REMARKS
CLARKSBURG     LGT RAIN  38  34  85 W13G23    29.69R
MORGANTOWN     LGT RAIN  38  33  82 W9        29.64R
$$

WVZ025-035-042-045-191000-
Southern West Virginia

CITY           SKY/WX    TMP DP  RH WIND       PRES   REMARKS
BECKLEY        LGT RAIN  37  35  92 NW20G26   29.71R
LOGAN          CLOUDY    41  36  81 NW5G24    29.79S
BLUEFIELD      LGT RAIN  36  33  89 W15G30    29.71R
LEWISBURG      CLOUDY    40  35  80 NW7G20    29.67R
$$

WVZ047-191000-
Northern Mountains of West Virginia

CITY           SKY/WX    TMP DP  RH WIND       PRES   REMARKS
ELKINS         LGT RAIN  38  32  79 W17G29    29.64R
$$

WVZ052-191000-
Eastern Panhandle of West Virginia

CITY           SKY/WX    TMP DP  RH WIND       PRES   REMARKS
MARTINSBURG    PTCLDY    52  39  61 W31G44    29.39R
PETERSBURG     CLOUDY    47  35  63 W21G33    29.52R
$$



USA.gov is the U.S. government's official web portal to all federal, state and local government web resources and services.